Wind_Speed
65 67 70 72 75 75 77 79 84 86 86 84 87 83 81 75 68 61 61 57 57 55 54 52 51 52 48 47 44 42 43 43 56 75 91 70 48 44
67 68 70 73 75 76 78 82 86 88 91 85 84 81 74 66 60 58 59 59 57 55 54 53 51 52 48 46 45 42 40 40 47 59 80 81 55 47
67 69 72 73 74 77 81 84 84 83 87 84 82 75 67 61 57 58 58 60 58 55 53 52 52 52 49 43 41 40 38 42 46 54 65 83 81 51
68 70 71 72 76 79 82 81 82 82 87 88 79 69 64 62 62 62 60 60 59 56 54 55 55 51 46 41 36 37 37 43 44 54 52 68 87 70
70 70 71 74 77 80 80 80 79 83 84 81 73 63 61 61 61 60 57 56 59 59 59 59 55 46 41 39 34 31 35 42 43 53 49 53 70 80
69 69 72 75 78 79 78 78 80 83 82 74 65 61 61 60 55 52 51 57 60 62 59 54 49 42 37 37 34 28 33 34 39 54 42 52 64 82
69 71 73 77 78 77 78 79 82 79 71 64 61 60 56 51 52 55 58 54 51 54 43 38 35 34 34 31 32 26 29 26 32 51 41 46 60 79
69 71 73 75 73 75 75 80 79 74 64 60 59 55 50 52 55 54 50 47 44 35 30 25 25 26 27 28 28 22 24 23 24 34 38 38 58 60
69 71 73 73 73 74 78 78 72 64 60 59 56 51 52 55 52 42 41 43 35 31 25 16 19 20 21 22 18 16 16 21 26 30 41 33 50 60
69 71 72 70 73 75 78 75 63 57 56 56 52 53 56 51 40 36 38 40 29 26 22 11 13 14 18 16 12 13 18 20 25 30 39 36 40 54
70 70 70 70 72 75 76 66 53 51 54 52 51 54 49 40 38 36 39 38 26 22 16 9 11 12 13 10 11 14 16 18 22 24 41 37 37 44
68 67 66 70 73 73 69 57 48 46 48 46 48 50 44 38 39 45 39 31 27 18 14 9 10 7 9 5 7 12 13 15 19 24 35 32 40 42
65 63 66 68 70 67 58 51 47 43 45 42 45 44 34 36 42 41 36 27 22 14 12 11 9 7 3 6 11 14 16 20 22 26 34 37 52 55
62 63 66 67 66 58 49 48 46 43 43 41 42 38 33 38 39 38 29 24 18 9 9 10 8 3 5 11 13 11 13 16 21 36 37 43 44 55
61 64 64 65 57 49 46 46 44 42 42 39 40 35 33 35 37 35 25 19 12 8 5 4 3 4 10 13 9 7 8 12 17 36 51 53 48 45
59 61 61 56 48 45 44 44 43 42 40 38 37 33 31 32 35 32 24 15 12 6 5 8 5 6 8 8 7 8 12 14 15 20 33 49 46 52
58 58 53 45 43 43 41 41 41 40 39 37 34 33 29 29 32 29 22 16 10 7 7 6 3 1 4 8 9 8 12 15 15 18 21 39 45 44
56 55 46 41 40 40 40 39 39 37 36 36 31 32 26 26 28 23 19 15 17 13 11 11 10 9 10 12 12 13 16 16 15 16 18 17 32 37
54 48 40 39 37 39 39 38 37 36 35 33 29 30 24 22 26 20 15 16 13 11 9 4 1 3 6 9 12 17 20 23 23 22 22 25 25 28
51 42 38 36 36 37 38 38 37 36 34 32 27 27 22 18 22 18 13 13 9 11 8 3 2 4 7 14 13 18 26 29 30 37 29 26 25 24
47 40 38 36 37 35 36 39 38 36 34 30 26 24 20 16 16 16 10 9 6 7 7 3 1 2 6 13 17 20 25 30 28 28 28 29 30 28
43 41 38 38 38 37 39 40 42 37 34 29 25 22 19 16 12 11 6 5 5 2 1 2 5 10 13 11 18 25 25 21 25 26 25 26 26 26
44 41 40 40 40 41 42 42 43 39 33 30 25 22 20 17 13 10 6 2 1 5 6 5 9 12 13 15 16 25 26 26 22 20 17 18 21 23
Wind_Direction
309 310 309 309 310 309 308 313 314 313 315 323 323 317 312 307 303 300 300 301 300 298 297 291 295 300 296 291 288 269 260 247 239 237 228 221 222 232
308 308 308 309 308 309 313 316 317 320 321 325 322 315 310 304 301 299 299 299 298 297 296 292 291 296 292 288 293 270 259 240 232 232 231 223 209 223
307 308 307 306 308 313 316 317 320 324 325 327 319 312 308 303 299 296 296 296 297 296 294 291 290 293 287 284 290 275 254 234 229 226 226 222 222 226
307 308 308 308 312 316 317 320 325 326 324 324 320 311 308 304 300 297 295 296 297 294 289 290 289 289 280 277 286 279 255 233 229 226 217 224 227 227
307 307 307 311 315 317 319 325 328 326 321 317 317 313 310 307 303 300 297 296 295 293 289 286 285 282 275 272 281 279 258 237 230 227 218 210 224 217
306 307 310 314 317 318 324 327 326 325 321 316 315 315 312 310 310 310 306 303 299 295 291 285 276 270 266 266 274 273 265 246 233 209 211 210 219 221
306 309 313 316 318 322 328 328 325 322 317 315 317 317 315 315 314 313 313 311 308 305 295 287 271 262 258 266 269 271 264 243 236 225 208 209 207 218
306 312 314 316 321 327 328 327 323 320 317 318 319 319 319 318 319 319 319 320 318 309 303 293 270 258 256 267 266 259 258 233 235 225 197 206 201 213
311 313 314 319 324 329 328 327 322 317 318 320 322 321 322 321 321 325 324 328 321 314 309 296 270 256 259 266 260 259 227 214 210 208 205 189 202 206
311 313 316 321 326 328 328 328 321 319 319 322 323 324 325 324 327 330 329 338 323 318 313 295 259 264 270 272 258 235 208 197 200 209 199 180 186 198
312 314 319 324 325 327 329 326 322 318 320 323 326 328 332 331 334 332 328 331 328 317 308 285 274 265 275 259 249 212 188 189 186 196 205 174 175 198
313 316 321 324 325 328 329 325 320 316 320 324 328 330 331 333 334 332 332 320 326 312 301 279 279 266 279 247 211 189 187 187 179 184 198 184 176 193
313 318 322 324 327 327 325 322 318 316 322 326 329 331 334 337 334 333 330 321 318 313 289 282 289 311 243 180 175 179 167 173 187 192 194 202 180 189
315 320 322 324 325 324 322 320 317 316 324 326 329 330 334 337 335 337 336 341 336 310 293 286 300 304 159 152 148 138 133 150 160 187 191 199 187 187
316 319 322 323 323 321 320 318 316 317 324 325 328 327 331 336 337 339 338 349 352 3 349 343 336 171 155 123 112 120 137 149 146 170 186 187 184 187
317 318 320 320 318 319 319 316 314 318 321 322 325 326 329 334 337 339 339 345 15 28 30 29 65 132 143 150 169 155 140 150 143 140 156 165 169 186
315 316 316 314 316 319 322 319 316 317 319 321 321 325 325 332 337 336 341 348 345 351 337 332 15 188 242 235 213 187 161 156 157 163 173 160 165 168
311 313 312 313 317 320 322 320 318 319 317 320 318 325 321 329 335 331 333 339 337 333 317 300 286 272 259 252 238 208 186 176 173 172 174 169 168 168
310 310 309 312 316 321 324 323 323 323 317 318 315 321 316 325 333 326 321 327 330 340 345 342 139 179 196 196 193 196 191 175 182 192 185 183 180 191
307 305 306 309 315 323 327 329 325 325 320 316 313 316 310 318 329 323 312 322 330 338 344 28 99 141 169 181 185 181 174 168 175 182 190 199 204 207
304 302 304 306 313 320 325 330 328 322 321 314 310 308 306 301 321 317 300 302 312 326 341 1 66 154 170 174 182 181 174 173 181 180 187 196 200 205
299 301 303 305 307 311 317 322 326 319 317 312 306 299 299 284 301 309 313 293 279 267 85 172 175 199 214 198 185 173 171 170 185 191 189 187 190 194
298 299 300 301 302 301 305 311 316 314 309 308 300 289 289 274 269 265 259 261 124 117 121 140 146 161 179 199 197 180 171 174 172 176 173 188 198 209
Height
5719 5712 5705 5697 5689 5678 5667 5656 5648 5649 5650 5630 5609 5595 5577 5563 5551 5541 5535 5532 5527 5522 5516 5512 5508 5503 5497 5492 5490 5490 5492 5496 5507 5524 5547 5563 5574 5587
5707 5700 5693 5684 5674 5664 5654 5643 5630 5619 5618 5608 5594 5574 5559 5548 5538 5530 5522 5516 5512 5507 5501 5496 5493 5488 5484 5481 5477 5477 5479 5483 5491 5503 5523 5544 5560 5572
5695 5688 5679 5670 5661 5651 5640 5629 5614 5598 5588 5597 5566 5553 5541 5530 5525 5517 5508 5501 5496 5492 5485 5480 5478 5474 5470 5468 5466 5464 5466 5471 5476 5488 5506 5529 5542 5561
5681 5673 5665 5657 5647 5637 5625 5613 5599 5583 5567 5560 5555 5536 5524 5514 5505 5499 5493 5485 5479 5475 5469 5464 5461 5459 5456 5455 5455 5454 5455 5459 5466 5473 5489 5506 5524 5547
5669 5661 5652 5642 5633 5622 5609 5597 5585 5571 5553 5535 5530 5519 5509 5497 5489 5482 5476 5471 5461 5455 5450 5445 5444 5444 5443 5443 5444 5445 5446 5449 5457 5462 5478 5493 5510 5530
5655 5647 5638 5628 5619 5607 5595 5583 5571 5557 5541 5524 5513 5505 5491 5482 5472 5464 5463 5452 5444 5434 5427 5423 5424 5428 5430 5432 5434 5436 5437 5441 5448 5454 5467 5482 5498 5516
5643 5634 5624 5615 5604 5592 5581 5569 5554 5539 5524 5512 5501 5490 5479 5470 5461 5453 5443 5435 5427 5413 5408 5407 5408 5414 5418 5422 5424 5426 5429 5435 5441 5447 5458 5474 5488 5506
5630 5621 5611 5601 5591 5578 5565 5551 5535 5521 5511 5500 5489 5478 5469 5459 5450 5440 5430 5421 5415 5406 5399 5399 5399 5404 5409 5413 5415 5418 5422 5427 5434 5444 5454 5464 5478 5498
5618 5608 5598 5589 5579 5569 5556 5539 5522 5507 5497 5489 5479 5468 5461 5450 5441 5433 5423 5413 5406 5400 5396 5396 5395 5399 5404 5406 5408 5411 5416 5422 5429 5438 5447 5459 5471 5488
5605 5595 5586 5576 5567 5558 5545 5529 5512 5498 5489 5480 5470 5461 5450 5441 5432 5425 5418 5410 5403 5398 5394 5394 5394 5397 5399 5401 5402 5406 5411 5417 5425 5433 5442 5455 5467 5481
5589 5580 5572 5564 5555 5546 5533 5518 5505 5493 5482 5471 5461 5453 5443 5434 5426 5420 5414 5406 5401 5397 5394 5393 5394 5395 5397 5397 5399 5402 5407 5414 5422 5431 5441 5452 5466 5482
5576 5568 5559 5552 5541 5528 5518 5506 5498 5490 5479 5467 5457 5447 5437 5429 5422 5415 5408 5402 5397 5395 5393 5394 5393 5394 5395 5395 5397 5400 5405 5411 5420 5430 5440 5449 5464 5478
5564 5555 5547 5538 5526 5515 5505 5496 5490 5483 5473 5462 5454 5445 5435 5428 5421 5412 5404 5397 5393 5392 5392 5392 5393 5393 5393 5395 5398 5401 5406 5411 5418 5427 5439 5449 5461 5475
5551 5545 5536 5525 5515 5504 5495 5488 5481 5474 5465 5457 5449 5441 5433 5426 5418 5410 5403 5396 5392 5391 5391 5392 5392 5393 5395 5398 5400 5403 5405 5410 5416 5426 5437 5450 5461 5473
5541 5533 5523 5513 5504 5495 5487 5481 5474 5466 5458 5451 5445 5437 5430 5423 5417 5410 5403 5399 5395 5394 5393 5393 5393 5395 5398 5400 5403 5407 5410 5414 5418 5425 5436 5446 5458 5468
5529 5518 5510 5502 5495 5488 5481 5474 5467 5459 5452 5446 5441 5434 5428 5421 5415 5409 5404 5400 5398 5397 5396 5396 5396 5398 5401 5404 5407 5411 5414 5418 5422 5428 5434 5443 5453 5465
5517 5508 5501 5493 5487 5479 5472 5466 5460 5452 5446 5442 5437 5431 5426 5420 5414 5409 5405 5401 5400 5400 5399 5399 5400 5401 5403 5406 5409 5413 5417 5422 5425 5430 5435 5442 5450 5458
5504 5498 5490 5484 5478 5473 5466 5460 5452 5445 5440 5437 5433 5428 5423 5418 5414 5409 5405 5403 5401 5399 5398 5399 5400 5401 5402 5405 5408 5413 5418 5424 5431 5434 5437 5440 5451 5458
5492 5486 5480 5476 5470 5464 5459 5453 5445 5439 5435 5432 5429 5425 5421 5417 5412 5409 5406 5404 5401 5400 5399 5398 5398 5400 5402 5403 5406 5411 5417 5424 5430 5435 5440 5445 5453 5460
5480 5474 5469 5465 5461 5456 5451 5445 5438 5433 5430 5427 5425 5422 5419 5416 5412 5408 5406 5404 5402 5401 5400 5399 5400 5401 5403 5405 5408 5412 5416 5422 5429 5436 5441 5446 5451 5456
5468 5464 5459 5456 5452 5447 5444 5438 5432 5428 5425 5422 5421 5419 5417 5415 5412 5408 5406 5405 5404 5402 5400 5400 5400 5402 5404 5407 5410 5413 5418 5422 5428 5434 5441 5447 5453 5458
5456 5453 5448 5446 5443 5439 5436 5431 5426 5423 5420 5417 5416 5415 5414 5413 5411 5409 5406 5405 5404 5404 5403 5402 5401 5403 5405 5408 5412 5415 5419 5425 5430 5435 5439 5444 5450 5454
5443 5440 5437 5434 5432 5429 5426 5423 5419 5416 5414 5412 5410 5410 5410 5410 5409 5409 5408 5406 5405 5404 5404 5404 5404 5405 5406 5408 5412 5416 5420 5424 5429 5434 5438 5444 5449 5454